Date String (YYYY-MM-DD hh:mm:ss) UTC,Instrument flags,absolute air pressure of the measurement (hPa),sample flow rate (lpm),inlet stack bypass flow (lpm),air temperature of the measurement (°C),ambient temperature measured by the external sensor (°C),aerosol sample conditioner tube jacket temperature (°C),OPC LED temperature (°C),internal box temperature (°C),relative humidity of the measurement (%),span deviation,mass concentration of particles derived from Lorenz-Mie calculation of OPC scattering (μg/m³),mass concentration of particles derived from Lorenz-Mie calculation of OPC scattering (μg/m³),mass concentration of particles derived from Lorenz-Mie calculation of OPC scattering (μg/m³)
DateTimeUTC,F1_M11,P_M11,Q1_M11,Q2_M11,T1_M11,T2_M11,T3_M11,T4_M11,T5_M11,U1_M11,ZSPAN_M11,X2_M11,X0_M11,X1_M11
2024-04-23 03:00:00,SystemResetWarning,0824.0,5.00,000.00,025.1,024.1,000.0,033.5,026.9,015.7,0000.0,0003.04,0009.56,0001.94
2024-04-23 03:01:00,SystemResetWarning,0824.0,5.00,000.00,025.1,024.2,000.0,033.5,027.0,015.8,0000.0,0003.03,0010.16,0001.94
2024-04-23 03:02:00,SystemResetWarning,0824.0,5.00,000.00,025.2,024.3,000.0,033.5,027.0,015.7,0000.0,0003.03,0010.08,0001.94
2024-04-23 03:03:00,SystemResetWarning,0824.0,5.00,000.00,025.2,024.4,000.0,033.5,027.1,015.5,0000.0,0003.01,0009.71,0001.93
2024-04-23 03:04:00,SystemResetWarning,0823.9,5.01,000.00,025.3,024.5,000.0,033.5,027.2,015.5,0000.0,0003.00,0009.79,0001.94
2024-04-23 03:05:00,SystemResetWarning,0823.9,5.00,000.00,025.3,024.6,000.0,033.5,027.2,015.5,0000.0,0003.04,0010.13,0001.95
2024-04-23 03:06:00,SystemResetWarning,0824.0,5.00,000.00,025.4,024.7,000.0,033.6,027.3,015.3,0000.0,0003.06,0010.35,0001.97
2024-04-23 03:07:00,SystemResetWarning,0823.9,5.00,000.00,025.4,024.8,000.0,033.6,027.3,015.4,0000.0,0003.08,0010.00,0001.98
2024-04-23 03:08:00,SystemResetWarning,0824.0,5.00,000.00,025.4,024.8,000.0,033.6,027.4,015.5,0000.0,0003.11,0010.05,0001.98
2024-04-23 03:09:00,SystemResetWarning,0824.0,5.00,000.00,025.5,024.9,000.0,033.6,027.4,015.4,0000.0,0003.12,0010.27,0002.00
2024-04-23 03:10:00,SystemResetWarning,0824.0,4.99,000.00,025.5,024.9,000.0,033.7,027.5,015.4,0000.0,0003.13,0009.93,0002.00
2024-04-23 03:11:00,SystemResetWarning,0824.0,5.00,000.00,025.6,025.0,000.0,033.7,027.5,015.4,0000.0,0003.12,0009.60,0002.00
2024-04-23 03:12:00,SystemResetWarning,0824.1,5.00,000.00,025.6,025.0,000.0,033.7,027.5,015.1,0000.0,0003.10,0008.76,0001.98
2024-04-23 03:13:00,SystemResetWarning,0824.2,5.00,000.00,025.7,025.1,000.0,033.8,027.6,015.5,0000.0,0003.13,0008.89,0001.98
2024-04-23 03:14:00,SystemResetWarning,0824.2,5.00,000.00,025.7,025.1,000.0,033.8,027.6,015.4,0000.0,0003.12,0008.77,0001.99
2024-04-23 03:15:00,SystemResetWarning,0824.3,5.00,000.00,025.7,025.2,000.0,033.9,027.6,015.3,0000.0,0003.11,0008.46,0001.98
2024-04-23 03:16:00,SystemResetWarning,0824.4,4.99,000.00,025.8,025.2,000.0,033.9,027.7,015.8,0000.0,0003.08,0007.95,0001.96
2024-04-23 03:17:00,SystemResetWarning,0824.4,5.00,000.00,025.8,025.0,000.0,033.9,027.5,015.9,0000.0,0003.07,0007.25,0001.95
2024-04-23 03:18:00,SystemResetWarning,0824.3,5.01,000.00,025.5,022.9,000.0,034.0,026.4,015.9,0000.0,0003.01,0006.85,0001.94
2024-04-23 03:19:00,SystemResetWarning,0824.2,5.01,000.00,025.1,022.0,000.0,034.0,025.8,015.8,0000.0,0002.96,0006.71,0001.95
2024-04-23 03:20:00,SystemResetWarning,0824.2,5.00,000.00,024.9,022.3,000.0,033.8,025.8,016.1,0000.0,0002.91,0006.17,0001.95
2024-04-23 03:21:00,SystemResetWarning,0824.3,5.00,000.00,024.9,022.6,000.0,033.7,026.1,015.9,0000.0,0002.89,0005.71,0001.94
2024-04-23 03:22:00,SystemResetWarning,0824.3,4.99,000.00,024.9,023.0,000.0,033.6,026.4,015.8,0000.0,0002.91,0005.33,0001.94
2024-04-23 03:23:00,SystemResetWarning,0824.3,5.00,000.00,024.9,023.3,000.0,033.6,026.6,015.6,0000.0,0002.93,0005.46,0001.95
2024-04-23 03:24:00,SystemResetWarning,0824.3,5.01,000.00,025.0,023.5,000.0,033.6,026.7,015.7,0000.0,0002.92,0005.72,0001.96
2024-04-23 03:25:00,SystemResetWarning,0824.2,5.00,000.00,025.0,023.8,000.0,033.5,026.8,015.8,0000.0,0002.90,0006.33,0001.95
2024-04-23 03:26:00,SystemResetWarning,0824.1,5.00,000.00,025.1,024.0,000.0,033.5,026.9,015.9,0000.0,0002.90,0006.47,0001.96
2024-04-23 03:27:00,SystemResetWarning,0824.1,4.99,000.00,025.1,024.1,000.0,033.5,027.0,015.8,0000.0,0002.95,0006.93,0001.97
2024-04-23 03:28:00,SystemResetWarning,0824.1,5.00,000.00,025.2,024.3,000.0,033.5,027.1,015.9,0000.0,0002.99,0007.31,0001.99
2024-04-23 03:29:00,SystemResetWarning,0824.2,5.00,000.00,025.2,024.4,000.0,033.5,027.1,016.1,0000.0,0003.01,0007.39,0002.01
2024-04-23 03:30:00,SystemResetWarning,0824.2,5.00,000.00,025.3,024.6,000.0,033.6,027.2,016.0,0000.0,0003.07,0007.81,0002.02
2024-04-23 03:31:00,SystemResetWarning,0824.2,5.00,000.00,025.3,024.6,000.0,033.6,027.2,015.8,0000.0,0003.09,0008.51,0002.02
2024-04-23 03:32:00,SystemResetWarning,0824.2,5.01,000.00,025.4,024.7,000.0,033.6,027.3,015.7,0000.0,0003.08,0008.45,0002.04
2024-04-23 03:33:00,SystemResetWarning,0824.2,5.01,000.00,025.4,024.8,000.0,033.6,027.3,015.5,0000.0,0003.12,0008.77,0002.05
2024-04-23 03:34:00,SystemResetWarning,0824.2,5.01,000.00,025.5,024.9,000.0,033.7,027.4,015.5,0000.0,0003.14,0009.67,0002.05
2024-04-23 03:35:00,SystemResetWarning,0824.1,4.99,000.00,025.5,024.9,000.0,033.7,027.4,015.4,0000.0,0003.15,0010.38,0002.07
2024-04-23 03:36:00,SystemResetWarning,0824.2,4.99,000.00,025.6,025.0,000.0,033.7,027.5,015.4,0000.0,0003.15,0009.90,0002.08
2024-04-23 03:37:00,SystemResetWarning,0824.2,5.00,000.00,025.6,025.0,000.0,033.8,027.5,015.5,0000.0,0003.16,0009.89,0002.09
2024-04-23 03:38:00,SystemResetWarning,0824.3,5.01,000.00,025.7,025.1,000.0,033.8,027.5,015.4,0000.0,0003.17,0009.70,0002.10
2024-04-23 03:39:00,SystemResetWarning,0824.3,5.00,000.00,025.7,025.1,000.0,033.8,027.6,015.3,0000.0,0003.16,0009.35,0002.10
2024-04-23 03:40:00,SystemResetWarning,0824.3,5.00,000.00,025.7,025.2,000.0,033.9,027.6,015.2,0000.0,0003.22,0009.45,0002.10
2024-04-23 03:41:00,SystemResetWarning,0824.3,4.99,000.00,025.8,025.2,000.0,033.9,027.7,015.2,0000.0,0003.23,0009.14,0002.12
2024-04-23 03:42:00,SystemResetWarning,0824.3,4.99,000.00,025.8,025.3,000.0,033.9,027.7,015.3,0000.0,0003.23,0008.62,0002.13
2024-04-23 03:43:00,SystemResetWarning,0824.3,5.00,000.00,025.8,025.3,000.0,034.0,027.7,015.3,0000.0,0003.23,0008.67,0002.12
2024-04-23 03:44:00,SystemResetWarning,0824.3,5.00,000.00,025.9,025.3,000.0,034.0,027.7,015.2,0000.0,0003.22,0008.64,0002.14
2024-04-23 03:45:00,SystemResetWarning,0824.3,4.99,000.00,025.8,024.7,000.0,034.1,027.4,015.6,0000.0,0003.26,0008.45,0002.16
2024-04-23 03:46:00,SystemResetWarning,0824.2,5.01,000.00,025.4,022.5,000.0,034.1,026.2,015.8,0000.0,0003.26,0008.46,0002.17
2024-04-23 03:47:00,SystemResetWarning,0824.2,5.01,000.00,025.1,022.1,000.0,034.0,025.7,016.1,0000.0,0003.29,0008.89,0002.18
2024-04-23 03:48:00,SystemResetWarning,0824.2,5.00,000.00,025.0,022.4,000.0,033.9,025.9,016.2,0000.0,0003.29,0009.22,0002.18
2024-04-23 03:49:00,SystemResetWarning,0824.3,5.00,000.00,025.0,022.7,000.0,033.8,026.2,016.3,0000.0,0003.29,0009.40,0002.19
2024-04-23 03:50:00,SystemResetWarning,0824.3,5.00,000.00,025.0,023.1,000.0,033.7,026.5,016.2,0000.0,0003.30,0009.68,0002.19
2024-04-23 03:51:00,SystemResetWarning,0824.4,5.00,000.00,025.0,023.4,000.0,033.7,026.6,016.3,0000.0,0003.26,0009.96,0002.18
2024-04-23 03:52:00,SystemResetWarning,0824.4,5.00,000.00,025.0,023.6,000.0,033.6,026.7,016.1,0000.0,0003.25,0010.03,0002.19
2024-04-23 03:53:00,SystemResetWarning,0824.4,5.00,000.00,025.1,023.8,000.0,033.6,026.8,016.0,0000.0,0003.25,0009.92,0002.19
2024-04-23 03:54:00,SystemResetWarning,0824.4,5.00,000.00,025.1,024.0,000.0,033.6,026.9,016.1,0000.0,0003.25,0010.09,0002.20
2024-04-23 03:55:00,SystemResetWarning,0824.4,5.00,000.00,025.2,024.2,000.0,033.6,027.0,016.0,0000.0,0003.26,0010.01,0002.21
2024-04-23 03:56:00,SystemResetWarning,0824.4,5.00,000.00,025.2,024.3,000.0,033.6,027.1,016.0,0000.0,0003.22,0009.50,0002.20
2024-04-23 03:57:00,SystemResetWarning,0824.4,4.99,000.00,025.3,024.4,000.0,033.6,027.1,016.0,0000.0,0003.24,0008.71,0002.20
2024-04-23 03:58:00,SystemResetWarning,0824.4,4.99,000.00,025.3,024.5,000.0,033.6,027.2,016.0,0000.0,0003.25,0008.30,0002.21
2024-04-23 03:59:00,SystemResetWarning,0824.4,4.99,000.00,025.3,024.6,000.0,033.6,027.2,016.0,0000.0,0003.23,0008.50,0002.21
